ASA64 PAWG-PAPG

Flight info

Callsign ASA64
Flight time 0h 11m
Altitude 10000
Route LVD3 LVD
Aircraft A320/M-SDE3FGHIRWY/LB1

Departure

Time 2026-05-03 20:15
Airport Wrangell Airport (PAWG)

Arrival

Time 2026-05-03 20:26
Airport Petersburg James A Johnson Airport (PAPG)
Time Latitude Longitude Altitude Speed Heading
2026-05-03 20:15 56.48146 -132.36138 54 ft 71 kts 301°
2026-05-03 20:15 56.48524 -132.37341 62 ft 142 kts 298°
2026-05-03 20:15 56.49078 -132.38729 941 ft 129 kts 308°
2026-05-03 20:15 56.49436 -132.40288 1620 ft 150 kts 265°
2026-05-03 20:16 56.48968 -132.42148 2323 ft 175 kts 240°
2026-05-03 20:16 56.48553 -132.44239 3265 ft 179 kts 268°
2026-05-03 20:16 56.48435 -132.46474 4352 ft 182 kts 272°
2026-05-03 20:16 56.48416 -132.48880 5212 ft 205 kts 274°
2026-05-03 20:17 56.48401 -132.51590 6015 ft 231 kts 272°
2026-05-03 20:17 56.48354 -132.54696 6914 ft 253 kts 271°
2026-05-03 20:17 56.48283 -132.57881 8114 ft 259 kts 270°
2026-05-03 20:17 56.48209 -132.61192 9247 ft 272 kts 274°
2026-05-03 20:18 56.48633 -132.64577 10241 ft 285 kts 296°
2026-05-03 20:18 56.49928 -132.67470 10824 ft 313 kts 322°
2026-05-03 20:18 56.51983 -132.69187 11419 ft 337 kts 337°
2026-05-03 20:18 56.54261 -132.70548 12070 ft 353 kts 339°
2026-05-03 20:19 56.56660 -132.71886 12070 ft 384 kts 339°
2026-05-03 20:19 56.59241 -132.73294 11388 ft 385 kts 340°
2026-05-03 20:19 56.61790 -132.74674 10646 ft 380 kts 340°
2026-05-03 20:19 56.64311 -132.76064 9857 ft 376 kts 340°
2026-05-03 20:20 56.66799 -132.77470 9085 ft 373 kts 340°
2026-05-03 20:20 56.69255 -132.78884 8322 ft 367 kts 340°
2026-05-03 20:20 56.71668 -132.80288 7592 ft 363 kts 340°
2026-05-03 20:20 56.74066 -132.81686 6773 ft 360 kts 341°
2026-05-03 20:21 56.76499 -132.83106 5051 ft 378 kts 341°
2026-05-03 20:21 56.78920 -132.84516 4935 ft 347 kts 342°
2026-05-03 20:21 56.81045 -132.86121 3385 ft 327 kts 314°
2026-05-03 20:21 56.81312 -132.89673 1288 ft 295 kts 243°
2026-05-03 20:22 56.80557 -132.92808 231 ft 251 kts 248°
2026-05-03 20:22 56.79966 -132.95028 660 ft 152 kts 240°
2026-05-03 20:22 56.79426 -132.96608 537 ft 135 kts 234°
2026-05-03 20:22 56.78811 -132.97921 815 ft 151 kts 217°
2026-05-03 20:23 56.77829 -132.99021 922 ft 173 kts 211°
2026-05-03 20:23 56.77677 -133.00764 1166 ft 173 kts 329°
2026-05-03 20:23 56.78786 -133.00180 725 ft 189 kts 43°
2026-05-03 20:23 56.79487 -132.97945 561 ft 215 kts 71°
2026-05-03 20:24 56.79878 -132.95217 372 ft 225 kts 83°
2026-05-03 20:24 56.80499 -132.93287 1099 ft 142 kts 41°
2026-05-03 20:24 56.81406 -132.93435 1137 ft 183 kts 292°
2026-05-03 20:24 56.81237 -132.95928 1108 ft 212 kts 256°
2026-05-03 20:25 56.80818 -132.98502 1196 ft 197 kts 252°
2026-05-03 20:25 56.80333 -133.00603 828 ft 171 kts 208°
2026-05-03 20:25 56.79491 -132.99768 608 ft 185 kts 90°
2026-05-03 20:25 56.79741 -132.97182 200 ft 224 kts 78°
2026-05-03 20:26 56.80184 -132.94467 106 ft 217 kts 69°
2026-05-03 20:26 56.80522 -132.92873 101 ft 58 kts 47°
2026-05-03 20:26 56.80629 -132.92708 95 ft 29 kts 37°